Location: Julian California
(33.0790°N, 116.6010°W)
Time: 20:37:41
(UTC-07:00)

Cosmos 1400 Rocket - Pass Details

Date: 14 June 2018
Orbit: 523 x 568 km, 81.2° (Epoch: 17 August)

Event Time Altitude Azimuth Distance (km) Brightness Sun altitude
Exits shadow 21:33:25 34° 157° (SSE) 932 3.5 -17.2°
Maximum altitude 21:34:55 56° 96° (E) 665 2.9 -17.4°
Drops below altitude 10° 21:38:54 10° 17° (NNE) 1,836 5.8 -18.0°
Sets 21:41:05 0° 14° (NNE) 2,727 6.8 -18.3°
